Home   Weather   Tallahassee   Past weeks

Flag for USA Past Weather in Tallahassee, Florida, USA — Yesterday and Last 2 Weeks

Now
84 °F

Broken clouds.


Feels Like: 89 °F
Forecast: 69 / 86 °F
Wind: 12 mph from South

Location: Tallahassee Regional Airport

Current Time: Apr 27, 2017 at 6:39:22 pm

Latest Report: Apr 27, 2017 at 5:53 pm


Visibility: 10 mi

Pressure: 29.87 "Hg

Humidity: 65%

Dew Point: 71 °F

Location of TallahasseeLocation

Past Weather in Tallahassee — Graph

°F

Tallahassee Temperature Yesterday

Maximum temperature yesterday: 81 °F (at 1:53 pm)
Minimum temperature yesterday: 52 °F (at 5:53 am)
Average temperature yesterday: 68 °F

High & Low Weather Summary for the Past Weeks

 TemperatureHumidityPressure
High87 °F (Apr 18, 2:53 pm)100% (Apr 23, 6:53 am)30.28 "Hg (Apr 23, 6:53 am)
Low51 °F (Apr 25, 1:53 am)31% (Apr 13, 4:53 pm)29.73 "Hg (Apr 23, 4:53 pm)
Average71 °F69%30.02 "Hg
* Reported Apr 12 4:53 pm — Apr 27 4:53 pm, Tallahassee, Weather by CustomWeather, © 2017

Note: Actual official high and low records may vary slightly from our data, if they occured in-between our weather recording intervals... More about our weather records

Advertising

Tallahassee Weather History for the Previous 24 Hours

Scroll right to see more
 ConditionsComfort  
Time TempWeatherWind HumidityBarometerVisibility
4:53 pm
Thu, Apr 27
87 °FBroken clouds.12 mph57%29.86 "Hg10 mi
3:53 pm86 °FBroken clouds.17 mph57%29.87 "Hg10 mi
2:53 pm87 °FPartly sunny.20 mph51%29.87 "Hg10 mi
1:53 pm87 °FPartly sunny.17 mph50%29.86 "Hg10 mi
12:53 pm87 °FPartly sunny.16 mph53%29.89 "Hg10 mi
12:33 pm86 °FPartly sunny.18 mph55%29.90 "Hg10 mi
11:53 am84 °FPartly sunny.18 mph61%29.90 "Hg10 mi
10:53 am82 °FPartly sunny.17 mph65%29.88 "Hg10 mi
9:53 am79 °FBroken clouds.16 mph74%29.88 "Hg10 mi
8:53 am75 °FBroken clouds.9 mph88%29.88 "Hg10 mi
7:53 am74 °FBroken clouds.6 mph91%29.85 "Hg8 mi
7:42 am74 °FBroken clouds.7 mph91%29.86 "Hg8 mi
6:53 am74 °FOvercast.9 mph88%29.83 "Hg10 mi
6:31 am74 °FOvercast.12 mph88%29.83 "Hg10 mi
5:53 am74 °FPassing clouds.6 mph91%29.80 "Hg10 mi
5:43 am74 °FPassing clouds.10 mph91%29.80 "Hg10 mi
5:32 am74 °FPassing clouds.13 mph91%29.80 "Hg10 mi
4:53 am74 °FOvercast.7 mph91%29.81 "Hg10 mi
4:39 am74 °FOvercast.7 mph91%29.82 "Hg10 mi
3:53 am74 °FOvercast.7 mph91%29.81 "Hg10 mi
2:53 am73 °FOvercast.8 mph90%29.82 "Hg10 mi
1:53 am70 °FOvercast.5 mph87%29.83 "Hg10 mi
1:14 am69 °FOvercast.5 mph87%29.85 "Hg10 mi
12:53 am69 °FOvercast.5 mph84%29.85 "Hg10 mi
12:21 am68 °FPassing clouds.5 mph87%29.86 "Hg10 mi
11:53 pm
Wed, Apr 26
67 °FPassing clouds.5 mph87%29.85 "Hg10 mi
10:53 pm68 °FMostly cloudy.No wind82%29.86 "Hg10 mi
9:53 pm69 °FClear.3 mph73%29.84 "Hg10 mi
8:53 pm71 °FClear.7 mph68%29.83 "Hg10 mi
7:53 pm74 °FPassing clouds.14 mph60%29.83 "Hg10 mi
6:53 pm77 °FScattered clouds.10 mph52%29.82 "Hg10 mi
Weather by CustomWeather, © 2017

See weather overviewHow to use our weather pages